Location: Arrodets-la-Barthe
(43.0306°N, 0.2829°E)
Time: 19:08:43
(UTC+00:00)

ARGOS - Pass Details

Date: 24 October 2021
Orbit: 820 x 835 km, 98.4° (Epoch: 02 December)

Event Time Altitude Azimuth Distance (km) Brightness Sun altitude
Rises 18:19:04 0° 163° (SSE) 3,355 6.2 -14.7°
Reaches altitude 10° 18:21:24 10° 163° (SSE) 2,428 5.4 -15.1°
Maximum altitude 18:26:47 85° 76° (ENE) 841 3.1 -16.1°
Drops below altitude 10° 18:32:15 10° 348° (NNW) 2,453 5.7 -17.1°
Sets 18:34:37 0° 348° (NNW) 3,392 6.5 -17.6°
